Location: Bowman Observatory
(41.0326°N, 73.6210°W)
Time: 12:41:50
(UTC-04:00)

Cosmos 2297 - Visible Passes

Search period start: 21 July 2017 00:00
Search period end: 31 July 2017 00:00
Orbit: 837 x 857 km, 71.0° (Epoch: 21 July)

Date Brightness Start Highest point End Pass type
(mag) Time Alt. Az. Time Alt. Az. Time Alt. Az.
21 Jul 4.0 20:48:09 10° SSW 20:53:49 76° WNW 20:59:29 10° NNE visible
21 Jul 6.9 22:36:25 10° WNW 22:38:58 13° NW 22:41:32 10° NNW visible
22 Jul 6.9 22:22:58 10° WNW 22:25:37 13° NW 22:28:15 10° NNW visible
23 Jul 7.0 22:09:31 10° WNW 22:12:15 13° NW 22:14:59 10° NNW visible
24 Jul 7.0 21:56:05 10° WNW 21:58:53 14° NW 22:01:42 10° NNW visible
25 Jul 5.0 05:02:58 10° NNW 05:08:25 47° ENE 05:13:51 10° SE visible
25 Jul 7.0 21:42:39 10° WNW 21:45:32 14° NW 21:48:26 10° NNW visible
26 Jul 5.0 04:49:39 10° NNW 04:55:05 46° ENE 05:00:29 10° SE visible
26 Jul 7.0 21:29:13 10° W 21:32:11 14° NW 21:35:09 10° NNW visible
27 Jul 5.0 04:36:19 10° NNW 04:41:44 45° ENE 04:47:08 10° SE visible
27 Jul 7.0 21:15:47 10° W 21:18:49 15° NW 21:21:51 10° NNW visible
28 Jul 5.0 04:22:59 10° NNW 04:28:24 44° ENE 04:33:46 10° SE visible
28 Jul 6.9 21:02:22 10° W 21:05:28 15° NW 21:08:35 10° NNW visible
29 Jul 5.0 04:09:40 10° NNW 04:15:03 44° ENE 04:20:25 10° SE visible
29 Jul 6.8 20:48:55 10° W 20:52:06 15° NW 20:55:17 10° NNW visible
30 Jul 5.0 03:56:20 10° N 04:01:42 43° ENE 04:07:03 10° SE visible
30 Jul 6.8 20:35:30 10° W 20:38:44 15° NW 20:42:00 10° NNW visible
